Ames, IA

6:19 AM CDT on July 28, 2017 (GMT -0500)
Ames Municipal

Weather History for KAMW - June, 2013

Change the Weather History Date:

Saturday, June 15, 2013

  Actual Average Record
Temperature  
Mean Temperature 72 °F 70 °F  
Max Temperature 82 °F 81 °F 92 °F (2016)
Min Temperature 62 °F 59 °F 48 °F (1999)
Degree Days  
Heating Degree Days 0 1  
Month to date heating degree days 42 20  
Since 1 June heating degree days 42 20  
Since 1 July heating degree days 6973 6827  
Cooling Degree Days 7 6  
Month to date cooling degree days 35 67  
Year to date cooling degree days 90 116  
Since 1 June cooling degree days 35 67  
Growing Degree Days 22 (Base 50)    
Moisture  
Dew Point 66 °F    
Average Humidity 85    
Maximum Humidity 100    
Minimum Humidity 69    
Precipitation  
Precipitation 0.22 in 0.15 in 2.10 in (1982)
Month to date precipitation 2.22 2.48  
Sea Level Pressure  
Sea Level Pressure 29.91 in    
Wind  
Wind Speed 6 mph (South)    
Max Wind Speed 24 mph    
Max Gust Speed 31 mph    
Visibility 9 miles    
Events Rain , Thunderstorm    
T = Trace of Precipitation, MM = Missing Value Source: NWS Daily Summary

Daily Weather History Graph

Daily Weather History Graph

Search for Another Location

Airport or City:

Trip Planner

Search our weather history database for the weather conditions in past years. The results will help you decide how hot, cold, wet, or windy it might be!

Date:

Astronomy

Jun. 15, 2013 Rise Set
Actual Time 5:38 AM CDT 8:51 PM CDT
Civil Twilight 5:03 AM CDT 9:26 PM CDT
Nautical Twilight 4:19 AM CDT 10:10 PM CDT
Astronomical Twilight 3:26 AM CDT 11:04 PM CDT
Moon 12:19 PM CDT (6/15) 12:22 AM CDT (6/15)
Length of Visible Light 16h 22m
Length of Day
15h 13m
Waxing Crescent, 40% of the Moon is Illuminated
Jun 15
Waxing Crescent
Jun 16
First Quarter
Jun 23
Full
Jun 29
Last Quarter
Jul 8
New

Hourly Weather History & Observations

Time (CDT) Temp. Heat Index Dew Point Humidity Pressure Visibility Wind Dir Wind Speed Gust Speed Precip Events Conditions
12:53 AM 68.0 °F - 63.0 °F 84% 29.96 in 8.0 mi WSW 5.8 mph - 0.12 in Rain Light Rain
1:04 AM 66.2 °F - 62.6 °F 88% 29.98 in 7.0 mi SSE 5.8 mph - 0.02 in Rain , Thunderstorm Thunderstorms and Rain
1:33 AM 66.2 °F - 62.6 °F 88% 29.93 in 8.0 mi SE 8.1 mph - 0.10 in Rain Light Rain
1:53 AM 68.0 °F - 62.1 °F 81% 29.92 in 7.0 mi Calm Calm - 0.14 in Rain Light Rain
2:53 AM 64.9 °F - 64.9 °F 100% 29.86 in 10.0 mi SE 4.6 mph - 0.08 in   Scattered Clouds
3:53 AM 66.0 °F - 63.0 °F 90% 29.88 in 10.0 mi SSE 5.8 mph - N/A   Clear
4:53 AM 64.0 °F - 63.0 °F 96% 29.89 in 10.0 mi SSE 3.5 mph - N/A   Partly Cloudy
5:53 AM 63.0 °F - 63.0 °F 100% 29.89 in 7.0 mi Calm Calm - N/A   Clear
6:53 AM 63.0 °F - 63.0 °F 100% 29.91 in 4.0 mi Calm Calm - N/A   Scattered Clouds
7:22 AM 64.4 °F - 64.4 °F 100% 29.93 in 5.0 mi SSE 5.8 mph - N/A   Scattered Clouds
7:31 AM 64.4 °F - 64.4 °F 100% 29.93 in 6.0 mi SSE 6.9 mph - N/A   Mostly Cloudy
7:53 AM 66.0 °F - 64.9 °F 96% 29.91 in 8.0 mi SE 10.4 mph - N/A   Scattered Clouds
8:53 AM 70.0 °F - 66.0 °F 87% 29.91 in 10.0 mi ESE 10.4 mph - N/A   Mostly Cloudy
9:53 AM 71.1 °F - 66.9 °F 87% 29.93 in 10.0 mi SE 9.2 mph - N/A   Mostly Cloudy
10:53 AM 71.1 °F - 66.0 °F 84% 29.93 in 10.0 mi SW 4.6 mph - N/A   Partly Cloudy
11:53 AM 70.0 °F - 66.9 °F 90% 29.92 in 10.0 mi SSE 6.9 mph - N/A   Partly Cloudy
12:53 PM 73.0 °F - 68.0 °F 84% 29.93 in 10.0 mi South 5.8 mph - N/A   Clear
1:53 PM 75.0 °F - 69.1 °F 82% 29.91 in 10.0 mi ESE 6.9 mph - N/A   Clear
2:53 PM 75.0 °F - 68.0 °F 79% 29.90 in 10.0 mi SSE 9.2 mph - N/A   Mostly Cloudy
3:53 PM 75.9 °F - 69.1 °F 79% 29.84 in 10.0 mi South 10.4 mph 21.9 mph N/A   Clear
4:53 PM 78.1 °F - 71.1 °F 79% 29.86 in 10.0 mi WSW 8.1 mph - N/A   Clear
5:53 PM 80.1 °F 83.8 °F 72.0 °F 76% 29.86 in 10.0 mi SW 10.4 mph - N/A   Clear
6:37 PM 80.6 °F 84.6 °F 71.6 °F 74% 29.86 in 10.0 mi West 8.1 mph - N/A   Partly Cloudy
6:53 PM 81.0 °F 84.9 °F 71.1 °F 72% 29.84 in 10.0 mi West 5.8 mph - N/A   Partly Cloudy
7:53 PM 80.1 °F 83.2 °F 70.0 °F 71% 29.87 in 10.0 mi West 6.9 mph - N/A   Clear
8:53 PM 77.0 °F - 71.1 °F 82% 29.89 in 10.0 mi Calm Calm - N/A   Partly Cloudy
9:30 PM 73.4 °F - 66.2 °F 78% 29.94 in 10.0 mi SSW 17.3 mph 23.0 mph N/A Thunderstorm Mostly Cloudy
9:41 PM 71.6 °F - 64.4 °F 78% 29.94 in 10.0 mi SSW 16.1 mph 25.3 mph N/A Thunderstorm Thunderstorm
9:53 PM 69.1 °F - 66.0 °F 90% 29.93 in 10.0 mi SSW 9.2 mph 20.7 mph N/A Thunderstorm Overcast
10:01 PM 69.8 °F - 64.4 °F 83% 29.95 in 10.0 mi SSW 11.5 mph 18.4 mph N/A   Overcast
10:53 PM 68.0 °F - 64.9 °F 90% 29.93 in 10.0 mi SW 5.8 mph - N/A   Partly Cloudy
11:53 PM 66.0 °F - 64.9 °F 96% 29.94 in 10.0 mi SSW 3.5 mph - N/A   Scattered Clouds